Weather in Laborovaya

Russia / Yamalo-Nenets Autonomous Okrug     67°38′36″N   67°32′57″E
temp.,
°C
wind,
m/s
gust,
m/s
humid.,
%
clouds,
%
prec.,
mm/h
press.,
hPa
HPBL,
m
27 february, sat
sat2723:00−25sse119236 0.0 102020
02:00−25s129235 0.0 102020
05:00−26sse129518 0.0 102020
08:00−25sse119591 0.0 102020
11:00−24sse229456 0.0 102020
14:00−23sse129353 0.0 102020
17:00−25sse129636 0.0 102020
20:00−26sse12960 0.0 101920
28 february, sun
sun2823:00−27sse22960 0.0 101920
02:00−27sse22960 0.0 101821
05:00−27sse129518 0.0 101821
08:00−27sse229358 0.0 101821
11:00−24sse228862 0.0 101734
14:00−22sse228568 0.0 101834
17:00−24sse228784 0.0 101825
20:00−26sse2289100 0.0 101620
1 march, mon
mon123:00−26sse1186100 0.0 101720
02:00−25s1284100 0.0 101620
05:00−26s1187100 0.0 101520
08:00−24sse228798 0.0 101320
11:00−22sse228896 0.0 101258
14:00−21sse2288100 0.0 101075
17:00−24sse2391100 0.0 100927
20:00−26sse339492 0.0 100626
2 march, tue
tue223:00−23sse469295 0.0 1004151
02:00−20s5888100 0.0 1002189
05:00−18s101386100 0.0 1001329
08:00−18s101284100 0.0 1000371
11:00−17s91184100 0.0 1000378
14:00−16s91184100 0.0 1000378
17:00−16s91284100 0.0 1000360
20:00−16s91285100 0.0 1000362
3 march, wed
wed323:00−16s91285100 0.0 1000369
02:00−15s81286100 0.0 1000400
05:00−15s91387100 0.0 1000437
08:00−16s91288100 0.0 1000380
11:00−15s91287100 0.0 1000465
14:00−15s91286100 0.0 1000455
17:00−15s81287100 0.0 1000372
20:00−16s61190100 0.0 1000302